This is the latest recevied weather packets stored in our database for station/object K1AWR. If no packets are shown the sender has not sent any weather packets the latest 10 day(s).
| Time | Temp. | Humidity | Pressure | Rain* | Wind** | Luminosity | Snow |
|---|---|---|---|---|---|---|---|
| 1778107957 | 15° C | 93% | 1006.6 hPa | 0 mm | - | 13 W/m² | - |
| 1778107653 | 15° C | 93% | 1006.7 hPa | 0 mm | - | 10 W/m² | - |
| 1778107350 | 15° C | 93% | 1006.6 hPa | 0 mm | - | 11 W/m² | - |
| 1778107047 | 15° C | 93% | 1006.5 hPa | 0 mm | - | 18 W/m² | - |
| 1778106742 | 15° C | 93% | 1006.6 hPa | 1.27 mm | - | 17 W/m² | - |
| 1778106439 | 15° C | 93% | 1006.4 hPa | 1.27 mm | - | 19 W/m² | - |
| 1778106135 | 15° C | 93% | 1006.6 hPa | 0 mm | - | 16 W/m² | - |
| 1778105833 | 15° C | 93% | 1006.7 hPa | 0 mm | - | 27 W/m² | - |
| 1778105531 | 15° C | 93% | 1006.5 hPa | 0 mm | - | 31 W/m² | - |
| 1778105228 | 15° C | 93% | 1006.6 hPa | 3.05 mm | - | 34 W/m² | - |
| 1778104923 | 15° C | 93% | 1006.7 hPa | 3.05 mm | - | 26 W/m² | - |
| 1778104619 | 15° C | 93% | 1006.5 hPa | 0 mm | - | 23 W/m² | - |
| 1778104315 | 15° C | 93% | 1006.7 hPa | 1.78 mm | - | 23 W/m² | - |
| 1778104012 | 15° C | 93% | 1006.7 hPa | 1.78 mm | - | 23 W/m² | - |
| 1778103709 | 15° C | 92% | 1006.5 hPa | 0 mm | - | 23 W/m² | - |
| 1778103408 | 15° C | 92% | 1006.6 hPa | 0 mm | - | 20 W/m² | - |
| 1778103104 | 15° C | 93% | 1006.7 hPa | 0 mm | - | 23 W/m² | - |
| 1778102802 | 15° C | 92% | 1006.7 hPa | 0 mm | - | 23 W/m² | - |
| 1778102496 | 15° C | 93% | 1006.8 hPa | 0 mm | - | 37 W/m² | - |
| 1778102192 | 15° C | 93% | 1006.6 hPa | 0 mm | - | 39 W/m² | - |
| 1778101889 | 15° C | 93% | 1006.7 hPa | 0 mm | - | 39 W/m² | - |
| 1778101586 | 15.56° C | 92% | 1006.7 hPa | 0 mm | - | 77 W/m² | - |
| 1778101283 | 15° C | 93% | 1006.9 hPa | 0 mm | - | 86 W/m² | - |
| 1778100980 | 15° C | 93% | 1006.9 hPa | 0 mm | - | 72 W/m² | - |
| 1778100674 | 15° C | 93% | 1007 hPa | 0 mm | - | 38 W/m² | - |
* Rain latest hour (hover to see other rain measurements)
** Current wind speed in m/s (hover to see current wind gust speed)